Weather in Kazanka

Ukraine / Mykolaiv District     47°50′17″N   32°49′34″E
temp.,
°C
wind,
m/s
gust,
m/s
humid.,
%
clouds,
%
prec.,
mm/h
press.,
hPa
HPBL,
m
25 february, thu
thu2523:00−1sw5880100 0.0 1036414
02:00−1sw4781100 0.0 1035408
05:00−1sw5886100 0.1 1033347
08:000sw4889100 0.1 1033318
11:00+1wsw4693100 0.0 1033254
14:00+5sw458897 0.0 1031268
17:00+4wsw4797100 0.0 1030156
20:00+3w4899100 0.1 1030163
26 february, fri
fri2623:00+4w4799100 0.0 1029123
02:00+2wnw4799100 0.0 1029156
05:00+2wnw3699100 0.0 1028145
08:00+3w3599100 0.0 1027124
11:00+4wsw5796100 0.0 1026342
14:00+7wsw5891100 0.0 1024439
17:00+6w489165 0.0 1021213
20:00+4wnw479854 0.0 1021233
27 february, sat
sat2723:00+4w4697100 0.0 1020210
02:00+4wnw3698100 0.0 1019173
05:00+4w3499100 0.0 1017145
08:00+4nw4996100 0.8 1017375
11:00+6nw6976100 0.5 1017914
14:00+6nw6970100 0.6 10161085
17:00+5nw5972100 0.1 1016683
20:00+3wnw598699 0.1 1016454
28 february, sun
sun2823:00+3nnw51086100 0.3 1017718
02:00+2nw599799 0.3 1018460
05:00+2nnw699697 0.1 1019598
08:00+1nnw7108497 0.3 1021674
11:00+4n686786 0.1 10221175
14:00+4nnw686693 0.2 10231158
17:00+3nnw5872100 0.1 10231011
20:00+1nnw4881100 0.2 1025452
1 march, mon
mon123:000nnw379384 0.0 1026230
02:00−1nnw379468 0.0 1027263
05:000n468797 0.1 1028561
08:00+1nne467198 0.1 1030892
11:00+3nne566699 0.1 10311041
14:00+3n456298 0.1 10321083
17:00+2nnw456596 0.1 1032778
20:000n347285 0.1 1033130